Simultaneous Nadir Overpasses (SNOs) Predictions

Prediction of SNOs between METOP-A and NOAA-19 Satellite Orbit:

Table of predicted SNOs for the next 14.0 days since TLE Epoch: 3/2/2018
Index Date (METOP-A) Time (METOP-A) Lat,Lon (METOP-A) SZA (METOP-A ) Date (NOAA-19) Time (NOAA-19) Lat,Lon (NOAA-19) SZA (NOAA-19 ) Distance(km) Time Diff (sec)
1 03/05/2018 12:11:42 78.56, 6.46 84.53 03/05/2018 12:10:37 78.54, 2.61 84.45 84.99 65
2 03/05/2018 13:02:32 -78.20, 171.80 95.89 03/05/2018 13:01:28 -78.23, 171.88 95.87 3.16 64
3 03/05/2018 13:53:12 78.22, -20.78 84.12 03/05/2018 13:52:29 78.21, -20.75 84.11 1.73 43
4 03/05/2018 14:43:53 -78.22, 146.56 95.89 03/05/2018 14:43:29 -78.22, 146.44 95.90 2.74 24
5 03/05/2018 15:34:34 78.20, -46.24 84.07 03/05/2018 15:34:30 78.20, -46.19 84.07 1.22 4
6 03/05/2018 16:25:15 -78.20, 121.10 95.94 03/05/2018 16:25:30 -78.21, 121.00 95.94 2.51 15
7 03/05/2018 17:15:56 78.18, -71.70 84.02 03/05/2018 17:16:31 78.19, -71.63 84.03 1.91 35
8 03/05/2018 18:06:37 -78.18, 95.64 96.00 03/05/2018 18:07:31 -78.20, 95.55 95.97 2.99 54
9 03/05/2018 18:57:18 78.15, -97.15 83.97 03/05/2018 18:58:32 78.18, -97.07 84.00 3.09 74
10 03/16/2018 08:20:47 78.28, 62.56 79.98 03/16/2018 08:19:39 78.25, 62.54 79.95 3.09 68
11 03/16/2018 09:11:29 -78.26,-130.23 100.07 03/16/2018 09:10:36 -78.24,-130.15 100.08 2.34 53
12 03/16/2018 10:02:09 78.26, 37.10 79.93 03/16/2018 10:01:40 78.24, 37.10 79.91 1.67 29
13 03/16/2018 10:52:51 -78.23,-155.69 100.12 03/16/2018 10:52:37 -78.23,-155.59 100.12 2.18 14
14 03/16/2018 11:43:31 78.24, 11.64 79.87 03/16/2018 11:43:41 78.23, 11.65 79.87 0.37 10
15 03/16/2018 12:34:13 -78.21, 178.85 100.17 03/16/2018 12:34:38 -78.23, 178.96 100.15 2.85 25
16 03/16/2018 13:24:53 78.21, -13.82 79.82 03/16/2018 13:25:42 78.22, -13.79 79.84 1.25 49
17 03/16/2018 14:15:34 -78.23, 153.61 100.18 03/16/2018 14:16:39 -78.22, 153.51 100.19 2.66 65




NCC Satellite Simultaneous Nadir Overpasses (SNOs) Prediction Service
